Torna al catalogo

STARLINK-6073

AttivoComunicazioniVLEO
NORAD 56807·PAYLOAD·🇺🇸 United States

Lanciato May 31, 2023 da Vandenberg Space Force Base

Loading…

Prossimi Passaggi (prossime 24 ore)

TLE

AggiornatoSource: CelesTrak SupGP

Epoca: Sep 15, 2026, 01:33 UTC

1 56807C 23078AS  26258.06506944 -.00029388  00000+0 -24631-2 0  2580
2 56807  70.0015 206.7978 0002906 270.7482 115.7239 14.98342428    11

Traccia STARLINK-6073 in tempo reale con AllMySat

Download on the App Store